Location: Newark
(48.8604°N, 2.3376°E)
Time: 17:07:58
(UTC+00:00)

XW-2C - Pass Details

Date: 14 December 2021
Orbit: 503 x 523 km, 97.5° (Epoch: 17 January)

Event Time Altitude Azimuth Distance (km) Brightness Sun altitude
Rises 16:36:09 0° 156° (SSE) 2,630 ? -6.7°
Reaches altitude 10° 16:38:15 10° 153° (SSE) 1,750 ? -7.0°
Maximum altitude 16:41:58 60° 74° (ENE) 603 ? -7.6°
Drops below altitude 10° 16:45:45 10° 354° (N) 1,774 ? -8.1°
Sets 16:47:53 0° 351° (N) 2,670 ? -8.4°
